Regional Weather Roundup
Issued by NWS

Home | Current Version | Previous Version | Text Only | Print | Product List | Glossary Off
Versions: 1 2 3 4 5 6 7 8 9 10 11 12 13 14 15 16 17 18 19 20 21 22 23 24 25 26 27 28 29 30 31 32 33 34 35 36 37 38 39 40 41 42 43 44 45 46 47 48 49 50

000
ASUS43 KBIS 280201
RWRND

NORTH DAKOTA REGIONAL WEATHER ROUNDUP
NATIONAL WEATHER SERVICE BISMARCK ND
900 PM CDT MON APR 27 2015

NOTE: "FAIR" INDICATES FEW OR NO CLOUDS BELOW 12,000 FEET WITH NO
SIGNIFICANT WEATHER AND/OR OBSTRUCTIONS TO VISIBILITY.


NDZ001>003-009>011-017-280300-
NORTHWEST NORTH DAKOTA

CITY           SKY/WX    TMP DP  RH WIND       PRES   REMARKS
WILLISTON      PTCLDY    52  38  58 SW7       30.27S
MINOT          CLEAR     50  39  66 S6        30.26S
MINOT AFB      CLEAR     49  47  91 S7        30.25S
$$

NDZ018>021-031>035-040>046-280300-
SOUTHWEST NORTH DAKOTA

CITY           SKY/WX    TMP DP  RH WIND       PRES   REMARKS
BISMARCK       CLOUDY    49  40  71 NW10      30.31R
DICKINSON      CLEAR     44  37  76 W3        30.29S
GARRISON         N/A     46  40  79 W5        30.29R
HETTINGER ARPT CLOUDY    45  38  76 NW6       30.33R
$$

NDZ004>008-012>016-024-026-027-054-280300-
NORTHEAST NORTH DAKOTA

CITY           SKY/WX    TMP DP  RH WIND       PRES   REMARKS
GRAND FORKS    CLOUDY    51  41  68 N14G23    30.23R
GRND FRKS AFB  CLOUDY    50  43  77 N12       30.24R
DEVILS LAKE    CLOUDY    48  41  76 NW6       30.26S
$$

NDZ022-023-025-028>030-036>039-047>053-280300-
SOUTHEAST NORTH DAKOTA

CITY           SKY/WX    TMP DP  RH WIND       PRES   REMARKS
FARGO          MOCLDY    58  40  51 N26G32    30.18R
JAMESTOWN      LGT RAIN  48  43  82 NW15      30.25R
$$




USA.gov is the U.S. government's official web portal to all federal, state and local government web resources and services.